Temp
76 75 75 75 75 76 74 73 69 64 66 70 72 76 74 76 77 77 76 77 74 70 70 69 69 70 70 70 70 70 71 71 71 70 71 71 72 72
76 75 74 75 76 75 75 73 72 69 66 71 72 73 76 77 78 75 76 76 72 70 69 68 69 69 69 69 69 69 69 69 69 70 70 70 70 70
75 75 75 76 74 74 75 74 72 71 68 69 71 73 73 72 74 74 76 73 73 72 70 69 68 68 69 68 68 68 68 68 68 68 69 69 69 69
74 74 74 78 73 74 73 72 72 73 70 67 70 70 71 73 73 71 75 80 74 77 72 70 68 67 66 66 66 66 65 66 66 66 67 68 68 69
74 74 73 74 73 73 72 71 71 72 71 67 68 70 70 70 69 70 70 71 75 75 71 70 68 68 66 65 64 63 62 62 62 63 64 65 66 67
76 75 74 73 73 73 72 71 71 69 68 64 66 69 69 70 70 67 67 69 68 76 76 73 72 69 67 65 64 64 61 60 59 60 61 61 63 64
76 75 76 76 75 73 71 71 70 68 67 66 67 69 69 67 65 67 66 66 68 71 70 70 72 70 71 67 68 68 64 62 60 59 58 58 59 60
74 75 76 74 73 69 65 67 70 68 66 65 66 66 65 65 66 66 64 64 63 69 66 67 70 70 71 72 71 70 68 63 61 60 59 58 58 58
75 74 75 78 73 74 67 67 66 65 67 67 65 66 65 65 65 64 63 63 62 67 65 63 68 67 70 75 69 68 66 61 61 61 61 59 58 57
75 74 72 72 73 73 72 71 68 68 66 66 65 67 67 67 66 65 63 62 64 66 66 61 64 66 69 71 69 66 64 63 62 61 60 59 57 56
74 73 72 73 68 62 69 68 67 69 70 64 65 64 64 62 64 64 62 61 61 63 67 64 66 65 66 67 70 67 64 61 61 60 60 59 57 55
71 71 65 70 61 59 67 66 65 67 68 69 69 66 63 65 62 63 65 61 62 60 66 62 64 63 60 66 66 67 66 62 58 56 57 56 55 58
69 68 71 59 57 57 58 67 64 62 66 67 67 68 69 70 70 70 65 63 62 62 67 65 63 63 58 58 63 65 65 63 60 58 56 55 54 55
70 69 68 55 54 57 56 59 57 58 64 65 65 66 67 66 66 65 65 64 65 63 65 63 62 59 57 57 56 63 64 63 62 60 59 58 56 55
71 60 55 54 58 55 55 58 58 62 63 64 64 64 64 65 66 65 65 65 65 65 66 63 61 60 57 56 56 58 56 59 58 58 57 57 57 58
59 59 60 60 61 63 61 57 61 64 64 64 63 64 65 64 63 63 61 61 60 62 63 66 64 61 58 57 57 56 57 54 57 57 56 55 57 59
64 67 65 65 66 64 64 64 64 64 63 65 64 63 61 62 61 62 60 60 59 58 60 65 62 62 60 58 55 57 55 55 57 55 53 53 56 58
67 67 68 70 69 69 64 64 62 63 64 64 62 61 60 60 60 60 60 59 57 58 59 60 61 58 58 59 61 55 55 54 54 53 53 52 52 56
68 68 68 70 69 68 67 67 66 66 64 64 63 62 61 60 59 59 59 59 58 58 59 59 56 55 51 49 57 58 54 53 53 51 52 51 50 53
67 69 70 69 68 67 67 66 65 64 63 62 60 60 61 60 59 59 59 58 58 58 59 59 58 56 52 50 51 56 54 53 51 50 50 51 54 57
69 68 71 70 68 67 66 65 64 63 61 60 60 60 61 61 59 60 60 56 57 59 57 56 58 56 54 56 53 53 57 55 53 50 50 48 48 51
73 71 70 68 66 66 65 63 63 62 62 62 61 61 61 61 61 61 61 60 59 60 58 59 58 57 55 52 49 50 53 54 56 55 53 50 48 44
71 70 68 68 67 65 65 64 63 63 63 63 62 61 60 61 60 61 62 63 63 61 58 59 58 58 54 51 50 50 50 50 51 49 49 52 52 52
MSLP
1017.16 1017.30 1017.39 1017.48 1017.35 1017.15 1017.46 1017.73 1018.10 1018.30 1018.04 1017.52 1017.42 1016.88 1017.12 1017.12 1017.18 1017.30 1017.29 1017.49 1017.53 1017.64 1017.79 1017.81 1017.77 1017.82 1017.91 1018.00 1017.94 1017.84 1017.84 1017.81 1017.86 1017.81 1017.73 1017.72 1017.64 1017.56
1016.70 1016.96 1017.07 1017.09 1017.22 1017.15 1017.21 1017.29 1017.62 1017.84 1017.81 1017.43 1017.45 1017.42 1017.16 1017.07 1016.97 1017.01 1016.99 1016.87 1016.94 1017.00 1016.96 1016.90 1016.94 1016.98 1017.03 1017.03 1017.09 1017.11 1017.07 1017.13 1017.13 1017.10 1017.12 1017.10 1017.13 1017.03
1015.48 1016.37 1016.83 1016.63 1016.89 1017.03 1017.10 1017.19 1017.28 1017.32 1017.60 1017.50 1017.36 1017.13 1016.99 1016.90 1016.72 1016.55 1016.42 1016.46 1016.34 1016.19 1016.13 1016.00 1015.90 1016.01 1016.05 1016.15 1016.29 1016.29 1016.16 1016.18 1016.24 1016.29 1016.33 1016.37 1016.45 1016.49
1015.53 1015.60 1016.20 1016.58 1016.78 1016.88 1016.93 1017.04 1017.01 1017.00 1017.31 1017.42 1017.25 1017.20 1016.83 1016.53 1016.28 1016.24 1015.92 1015.56 1015.53 1015.29 1015.22 1015.18 1015.20 1015.09 1015.14 1015.15 1015.25 1015.22 1015.35 1015.38 1015.39 1015.45 1015.44 1015.38 1015.54 1015.69
1014.96 1015.11 1015.43 1015.96 1016.24 1016.51 1016.74 1016.98 1017.02 1016.84 1017.03 1017.23 1017.06 1016.51 1016.25 1016.03 1015.90 1015.62 1015.37 1015.12 1015.07 1014.88 1014.66 1014.36 1014.19 1014.06 1014.07 1014.06 1014.07 1014.25 1014.29 1014.39 1014.41 1014.51 1014.50 1014.46 1014.51 1014.71
1014.42 1014.46 1014.83 1015.41 1015.74 1015.95 1016.21 1016.53 1016.70 1016.80 1016.89 1017.05 1017.06 1016.32 1016.01 1015.61 1015.46 1015.60 1015.32 1015.03 1014.96 1014.52 1014.06 1013.72 1013.36 1013.31 1013.30 1013.20 1013.25 1013.39 1013.38 1013.40 1013.35 1013.38 1013.50 1013.55 1013.52 1013.64
1014.06 1014.11 1014.17 1014.66 1014.91 1015.25 1015.73 1016.08 1016.37 1016.47 1016.49 1016.48 1016.24 1016.14 1015.84 1015.69 1015.80 1015.66 1015.44 1015.16 1014.78 1014.33 1013.88 1013.69 1013.13 1012.90 1012.86 1012.66 1012.72 1012.66 1012.46 1012.39 1012.22 1012.40 1012.60 1012.73 1012.76 1012.61
1013.76 1013.65 1013.67 1013.91 1014.31 1014.75 1015.32 1015.52 1015.66 1015.78 1015.83 1015.99 1016.07 1015.75 1015.54 1015.55 1015.63 1015.66 1015.50 1015.34 1014.54 1014.02 1013.79 1013.54 1013.15 1012.92 1012.65 1012.33 1011.82 1011.64 1011.26 1011.33 1011.63 1011.74 1011.70 1011.66 1011.53 1011.26
1013.12 1013.27 1013.55 1013.66 1014.01 1014.26 1014.70 1014.86 1014.93 1014.85 1015.09 1015.25 1015.28 1015.25 1015.26 1015.15 1015.36 1015.41 1015.24 1015.07 1014.76 1014.21 1013.96 1013.14 1013.02 1012.62 1012.08 1011.47 1011.20 1010.91 1010.72 1010.99 1010.94 1010.65 1010.39 1010.24 1010.04 1009.86
1012.52 1012.72 1012.90 1013.30 1013.66 1013.87 1014.01 1014.28 1014.54 1014.38 1014.52 1014.82 1014.84 1014.65 1014.59 1014.53 1014.71 1014.80 1014.70 1014.52 1014.14 1013.57 1013.10 1012.64 1012.34 1012.09 1011.57 1010.92 1010.51 1010.36 1010.24 1009.97 1009.80 1009.53 1009.32 1009.07 1008.86 1008.47
1012.15 1012.45 1012.53 1012.64 1012.99 1013.40 1013.90 1014.20 1014.35 1013.86 1013.59 1013.74 1013.71 1013.72 1013.83 1013.93 1013.96 1014.22 1014.18 1013.99 1013.51 1013.04 1012.54 1012.15 1012.00 1011.58 1011.02 1010.62 1010.22 1009.91 1009.81 1009.52 1009.08 1008.55 1008.02 1007.55 1007.21 1006.92
1011.90 1011.85 1011.98 1012.26 1012.91 1013.39 1013.92 1013.98 1013.94 1013.66 1013.42 1013.27 1013.46 1013.58 1013.61 1013.36 1013.18 1013.43 1013.20 1013.40 1013.23 1012.67 1012.22 1012.04 1011.93 1011.68 1010.81 1010.24 1009.82 1009.50 1009.09 1008.56 1007.97 1007.29 1006.57 1005.83 1005.39 1005.23
1011.60 1011.73 1011.66 1012.03 1012.54 1013.13 1013.61 1013.83 1013.93 1013.92 1013.65 1013.44 1013.25 1013.12 1012.84 1012.54 1012.19 1012.07 1012.49 1012.90 1012.67 1012.25 1011.79 1011.60 1011.42 1011.21 1010.96 1010.14 1009.44 1008.98 1008.49 1007.40 1006.89 1006.20 1005.21 1004.33 1003.57 1003.29
1011.39 1011.48 1011.80 1011.97 1012.61 1013.11 1013.75 1013.80 1013.95 1013.84 1013.62 1013.34 1013.08 1012.73 1012.50 1012.03 1011.81 1011.96 1011.85 1011.71 1011.54 1011.47 1011.05 1011.04 1010.88 1010.85 1010.66 1010.10 1009.11 1007.83 1007.29 1006.86 1006.10 1004.83 1004.12 1003.29 1002.22 1001.31
1011.24 1011.43 1011.70 1012.34 1012.80 1013.26 1013.46 1013.40 1013.56 1013.54 1013.43 1013.09 1012.79 1012.50 1012.19 1011.83 1011.71 1011.65 1011.39 1011.13 1011.01 1010.69 1010.38 1010.14 1010.08 1009.99 1010.16 1009.71 1008.90 1007.85 1007.09 1005.84 1005.08 1004.26 1003.45 1002.31 1001.13 1000.14
1011.51 1011.83 1012.06 1012.01 1012.24 1012.48 1012.65 1013.06 1013.20 1013.09 1012.75 1012.57 1012.45 1012.24 1011.86 1011.82 1011.78 1011.60 1011.59 1011.32 1011.17 1010.68 1009.86 1009.35 1009.18 1009.49 1009.42 1009.00 1008.47 1007.36 1006.54 1005.78 1004.71 1003.74 1002.66 1001.11 999.53 998.32
1010.96 1011.15 1011.75 1011.59 1011.66 1011.76 1011.94 1012.20 1012.33 1012.35 1012.35 1012.08 1011.96 1012.06 1012.12 1012.08 1011.85 1011.51 1011.44 1011.39 1011.03 1010.36 1009.68 1009.15 1009.10 1008.95 1008.73 1008.44 1007.77 1007.06 1006.30 1005.29 1004.12 1003.13 1002.07 1000.32 998.69 997.32
1010.45 1010.57 1010.69 1010.52 1010.40 1010.40 1011.19 1011.48 1011.69 1011.81 1011.77 1011.73 1011.93 1012.00 1012.08 1011.97 1011.76 1011.51 1011.23 1010.99 1010.69 1010.15 1009.66 1009.09 1008.84 1008.60 1008.18 1007.39 1006.82 1006.46 1005.76 1004.79 1003.70 1002.70 1001.75 1000.27 998.03 996.39
1010.26 1010.23 1010.16 1009.83 1010.02 1010.39 1010.67 1010.90 1011.09 1011.21 1011.39 1011.49 1011.73 1011.83 1011.85 1011.73 1011.50 1011.27 1011.00 1010.64 1010.30 1009.85 1009.28 1008.85 1008.81 1008.71 1008.49 1007.65 1006.51 1005.88 1005.44 1004.50 1003.40 1002.22 1001.28 1000.13 998.49 996.42
1010.01 1009.73 1009.52 1009.72 1009.99 1010.30 1010.60 1010.98 1011.19 1011.35 1011.53 1011.75 1011.93 1011.96 1011.75 1011.44 1011.29 1011.05 1010.73 1010.41 1010.02 1009.46 1008.99 1008.53 1008.51 1008.50 1008.61 1007.98 1007.02 1005.72 1004.99 1004.55 1003.76 1002.42 1001.10 999.82 998.25 996.15
1009.35 1009.12 1009.26 1009.66 1010.07 1010.32 1010.60 1010.93 1011.25 1011.52 1011.77 1011.87 1011.89 1011.72 1011.41 1011.31 1011.11 1010.84 1010.48 1010.04 1009.53 1009.03 1008.67 1008.50 1008.06 1008.38 1008.40 1007.84 1007.22 1006.07 1004.90 1004.28 1003.84 1002.77 1001.50 1000.19 998.50 996.59
1008.77 1008.87 1009.27 1009.79 1010.23 1010.58 1010.90 1011.16 1011.37 1011.39 1011.42 1011.35 1011.41 1011.37 1011.28 1011.15 1011.02 1010.67 1010.27 1009.84 1009.21 1008.66 1008.45 1007.98 1007.87 1007.93 1007.96 1007.79 1007.47 1006.69 1005.35 1004.35 1003.30 1002.52 1001.98 1001.31 1000.25 999.07
1008.64 1008.88 1009.43 1009.83 1010.19 1010.54 1010.81 1011.09 1011.23 1011.20 1011.05 1011.03 1011.19 1011.31 1011.25 1011.14 1010.83 1010.50 1010.12 1009.51 1008.97 1008.53 1008.32 1007.90 1007.57 1007.53 1007.60 1007.74 1007.58 1007.05 1006.22 1004.91 1003.64 1002.59 1002.16 1001.51 1000.61 999.58
Wind_Speed
5 5 4 4 4 2 3 3 3 2 2 4 2 4 2 1 5 4 4 5 11 12 14 15 13 12 12 12 12 12 11 11 12 12 12 14 15 16
4 5 6 3 3 3 3 3 2 4 2 1 3 2 1 2 5 6 6 8 10 15 17 18 17 14 15 16 16 14 13 13 13 13 13 13 14 15
6 4 4 5 2 4 1 1 2 1 1 3 2 3 3 4 5 5 5 6 6 15 17 18 18 18 18 17 16 16 16 15 15 15 15 15 15 16
9 7 6 4 6 5 3 5 3 3 2 4 3 4 6 4 4 5 6 7 5 9 8 13 15 18 18 18 19 18 17 17 16 16 17 17 17 17
7 7 7 7 5 4 4 3 3 2 2 3 5 3 5 3 4 5 5 6 4 9 14 17 18 19 19 21 22 18 19 18 17 18 19 18 18 18
7 8 7 7 6 7 5 5 4 3 3 3 9 4 3 5 4 3 4 2 4 7 10 11 12 15 22 20 19 19 18 19 20 21 19 19 20 20
7 7 7 7 10 9 5 6 6 4 3 4 5 7 7 4 4 4 4 4 6 6 6 5 6 5 5 10 16 17 19 20 20 20 16 15 19 21
8 7 6 11 13 5 6 10 6 5 6 4 6 9 6 4 2 5 5 6 8 5 4 8 7 8 9 9 15 19 18 14 13 15 17 19 20 22
8 6 6 6 8 7 11 11 11 13 11 6 9 8 8 4 4 6 6 5 8 8 9 11 8 9 7 8 13 17 13 10 14 16 19 20 21 22
8 8 7 7 6 7 6 5 6 7 8 7 9 11 9 6 5 4 6 7 7 9 11 8 4 8 9 9 15 12 10 13 15 18 22 21 21 23
6 7 8 8 10 6 3 6 8 8 7 10 14 10 8 9 9 3 8 6 8 6 5 5 8 10 6 8 8 11 14 16 20 24 27 30 29 28
7 8 9 9 3 5 6 7 6 6 5 5 2 4 7 10 15 10 10 8 8 7 6 5 7 8 9 9 7 9 9 17 19 21 28 33 32 16
7 6 6 9 7 7 4 4 2 4 6 5 5 6 8 9 10 8 6 5 6 8 8 6 9 9 7 9 9 9 10 12 12 15 20 22 24 22
4 4 3 10 10 7 4 2 1 3 4 5 6 7 7 3 3 3 4 5 6 8 10 9 8 8 6 10 12 10 11 12 12 12 10 16 22 23
3 2 11 11 7 5 9 9 6 4 5 6 6 3 3 4 5 5 6 6 6 6 5 6 4 4 5 8 10 11 13 11 11 9 13 14 14 13
8 8 8 9 9 6 4 6 5 6 5 4 3 4 3 3 4 3 3 4 4 7 8 6 4 3 5 8 9 12 11 11 13 11 13 16 14 14
8 5 5 5 7 7 6 7 7 5 5 5 1 3 3 4 3 3 3 5 6 5 5 5 5 6 7 6 9 10 11 13 12 13 14 15 14 15
4 4 4 6 5 0 7 6 4 7 3 3 3 2 4 3 4 4 4 4 4 5 5 4 3 5 7 5 11 8 9 10 13 12 12 12 14 14
1 3 6 2 3 3 3 3 3 3 3 0 2 2 3 4 4 4 5 4 4 5 6 3 1 2 7 9 6 6 10 11 12 11 10 11 14 15
3 5 1 3 3 3 3 2 3 4 4 4 4 4 5 3 3 4 5 4 5 6 7 1 3 1 3 5 6 11 10 9 11 12 12 10 11 23
6 2 3 3 3 3 3 3 3 2 1 2 4 5 3 3 4 5 5 8 8 6 4 4 1 1 4 6 6 8 10 11 11 11 12 11 11 9
2 3 4 4 4 3 3 3 2 3 3 3 2 3 4 3 5 5 5 7 6 4 3 6 3 2 1 3 7 10 9 13 14 16 17 20 9 8
1 4 4 3 2 3 2 2 3 4 3 2 3 3 4 4 5 4 7 7 6 5 4 8 0 3 3 2 5 7 12 14 12 14 12 22 20 21
Wind_Direction
189 191 212 279 292 346 87 106 158 243 296 305 257 231 234 221 157 202 210 249 202 201 221 236 238 238 235 246 254 258 266 272 280 283 282 285 288 290
195 216 199 229 316 334 266 227 230 193 240 301 357 68 228 6 205 219 223 234 209 217 224 229 233 232 233 233 235 244 249 255 258 266 271 269 273 277
173 197 254 193 217 279 346 318 289 323 23 303 324 307 301 269 270 259 231 230 234 234 236 238 232 227 230 236 234 235 240 245 248 251 259 261 261 264
194 185 195 213 216 249 275 276 279 293 222 260 250 266 242 250 246 263 249 245 235 249 260 251 235 228 226 228 236 239 236 237 242 248 250 254 256 256
197 186 189 210 212 208 213 256 268 279 320 291 276 254 234 240 268 255 266 260 264 266 264 261 244 239 226 227 231 234 237 238 236 244 249 249 252 253
204 188 182 195 197 210 220 233 245 252 269 278 274 268 260 265 245 287 304 278 255 269 280 285 272 232 234 239 240 241 241 241 238 240 243 245 249 253
203 199 191 205 203 206 190 225 223 215 221 249 280 295 292 311 317 300 286 295 289 276 275 297 289 303 306 240 249 252 249 245 244 240 245 246 246 249
219 206 204 200 227 214 237 238 211 209 230 234 257 263 274 276 306 298 307 298 291 289 302 305 300 296 300 292 277 269 271 247 243 239 242 243 244 244
214 194 210 223 202 203 219 215 216 216 220 223 243 255 266 259 275 279 279 304 288 290 289 281 280 274 266 277 288 282 288 225 228 240 248 242 242 245
209 199 193 230 222 213 208 225 234 241 229 231 231 248 252 249 233 235 259 262 267 265 255 267 282 292 284 280 268 270 294 314 300 291 282 278 268 268
215 202 203 217 226 228 239 250 269 261 254 235 225 232 224 230 234 255 259 263 272 286 299 291 296 285 293 303 297 301 292 282 281 278 279 279 274 266
230 227 207 228 268 215 222 252 258 258 265 299 294 276 260 257 248 234 248 250 264 281 272 297 314 307 300 292 287 294 282 277 274 277 280 278 268 259
239 237 229 212 186 165 216 263 301 357 324 305 293 282 267 256 249 249 220 233 270 279 287 288 285 289 278 305 286 281 286 288 294 282 265 271 261 247
260 190 213 139 141 168 191 160 119 303 276 276 271 270 273 309 2 8 264 254 257 257 271 268 271 284 285 295 292 292 298 295 290 288 296 294 283 264
285 136 130 136 148 184 215 207 207 240 253 263 271 290 312 316 325 298 277 268 260 272 275 254 266 287 289 292 287 292 303 303 298 288 300 297 291 279
124 141 166 169 185 221 165 200 222 241 238 251 281 273 285 336 319 306 316 316 311 293 277 282 281 360 300 293 295 296 300 304 306 302 300 296 295 283
172 148 190 195 213 210 206 200 209 227 239 243 305 325 340 304 310 315 317 299 284 299 296 309 356 326 300 291 291 296 299 306 314 310 307 298 299 299
192 204 231 241 225 201 188 206 203 226 238 51 18 320 283 302 292 295 278 277 291 297 310 291 322 323 324 269 248 284 305 315 315 314 304 302 307 308
226 255 258 251 57 40 21 13 3 53 143 302 275 302 311 290 295 298 287 290 291 289 285 276 337 339 316 308 286 282 313 321 321 320 318 316 302 298
243 242 251 52 42 64 57 6 13 25 21 22 12 327 289 290 307 296 295 300 289 288 294 297 207 291 258 283 307 305 315 325 327 325 326 315 293 291
201 215 116 87 42 33 64 53 62 4 16 288 271 264 308 323 311 299 306 299 293 290 309 322 219 142 271 284 309 312 316 335 323 330 337 325 330 331
352 81 75 79 61 47 31 32 318 274 284 246 252 350 302 329 304 306 307 300 296 305 348 309 152 171 306 353 317 311 321 333 339 342 360 358 347 337
298 115 72 79 113 168 178 216 252 277 281 0 17 346 340 301 292 325 304 307 313 326 3 319 293 216 104 17 320 343 334 340 345 350 1 357 351 354